CW6881 Weather Reports


time (UTC)temp
C
wind
direction
speed
KPH
gust
KPH
rain 1hr
cm
rain 24hr
cm
rain mn
cm
humidity
%
barometer
mb
20260503223016 26 0 3.2 11.3 0.00 0.00 0.00 43 1011.2
20260503222017 26 315 3.2 11.3 0.00 0.00 0.00 41 1011.2
20260503221037 26 338 3.2 9.7 0.00 0.00 0.00 42 1011.3
20260503220037 26 0.0 11.3 0.00 0.00 0.00 43 1011.5
20260503215016 26 0.0 0.0 0.00 0.00 0.00 45 1011.6
20260503214017 26 0.0 0.0 0.00 0.00 0.00 44 1011.7
20260503213017 26 0.0 0.0 0.00 0.00 0.00 47 1011.8
20260503212016 26 0.0 0.0 0.00 0.00 0.00 45 1011.9
20260503211037 26 0.0 0.0 0.00 0.00 0.00 48 1012.0
20260503210017 26 0.0 0.0 0.00 0.00 0.00 48 1012.1
20260503205753 26 0.0 0.0 0.00 0.00 0.00 49 1012.2
20260503204516 26 0.0 0.0 0.00 0.00 0.00 48 1012.3
20260503203517 26 0.0 0.0 0.00 0.00 0.00 52 1012.4
20260503202516 26 0.0 0.0 0.00 0.00 0.00 48 1012.5
20260503201516 26 0.0 0.0 0.00 0.00 0.00 51 1012.6
20260503200517 25 0.0 0.0 0.00 0.00 0.00 55 1012.7
20260503195517 25 0.0 0.0 0.00 0.00 0.00 49 1012.9
20260503194516 25 0.0 0.0 0.00 0.00 0.00 55 1013.0
20260503193505 24 0.0 0.0 0.00 0.00 0.00 53 1013.1
20260503192537 23 0.0 0.0 0.00 0.00 0.00 52 1013.2
20260503191519 24 0.0 0.0 0.00 0.00 0.00 54 1013.4
20260503190519 24 0.0 0.0 0.00 0.00 0.00 56 1013.4
20260503185519 24 0.0 0.0 0.00 0.00 0.00 54 1013.6
20260503184519 23 0.0 0.0 0.00 0.00 0.00 55 1013.6
20260503183520 23 0.0 0.0 0.00 0.00 0.00 53 1013.8
20260503182519 22 0.0 0.0 0.00 0.00 0.00 60 1013.8
20260503181519 22 0.0 0.0 0.00 0.00 0.00 58 1013.8
20260503180519 22 0.0 0.0 0.00 0.00 0.00 62 1013.9
20260503175519 22 0.0 0.0 0.00 0.00 0.00 59 1014.0
20260503174519 22 0.0 0.0 0.00 0.00 0.00 59 1014.0
20260503173519 22 0.0 0.0 0.00 0.00 0.00 60 1014.0
20260503172519 22 0.0 0.0 0.00 0.00 0.00 61 1014.1
20260503171519 22 0.0 0.0 0.00 0.00 0.00 61 1014.1
20260503170518 21 0.0 0.0 0.00 0.00 0.00 59 1014.1
20260503150517 18 0.0 0.0 0.00 0.00 0.00 64 1014.2
20260503130517 11 0.0 0.0 0.00 0.00 0.00 83 1013.9
20260503110517 12 0.0 0.0 0.00 0.00 0.00 76 1014.1
20260503081517 16 0.0 1.6 0.00 0.00 0.00 59 1014.5
20260503080517 17 0.0 1.6 0.00 0.00 0.00 58 1014.5
20260503072517 17 0 1.6 6.4 0.00 0.00 0.00 56 1014.4
20260503071537 17 23 3.2 9.7 0.00 0.00 0.00 56 1014.4
20260503070517 17 0 1.6 6.4 0.00 0.00 0.00 54 1014.4
20260503054517 17 0 3.2 8.0 0.00 0.00 0.00 54 1014.1
20260503053517 17 0 3.2 9.7 0.00 0.00 0.00 55 1014.1
20260503052517 17 0 1.6 6.4 0.00 0.00 0.00 56 1014.1
20260503051537 17 23 3.2 12.9 0.00 0.00 0.00 58 1014.0
20260503050517 17 0 4.8 11.3 0.00 0.00 0.00 60 1013.9
20260503045517 17 0 3.2 9.7 0.00 0.00 0.00 62 1013.9
20260503044517 16 0 1.6 8.0 0.00 0.00 0.00 64 1013.9
20260503043517 16 0 1.6 6.4 0.00 0.00 0.00 66 1013.7
20260503042537 16 0.0 3.2 0.00 0.00 0.00 67 1013.7
20260503041517 16 0.0 1.6 0.00 0.00 0.00 67 1013.6
20260503040517 17 0.0 0.0 0.00 0.00 0.00 67 1013.4
20260503035517 17 0.0 1.6 0.00 0.00 0.00 66 1013.3
20260503034517 17 0.0 3.2 0.00 0.00 0.00 66 1013.2
20260503033517 17 0.0 1.6 0.00 0.00 0.00 65 1013.0
20260503032517 17 0.0 4.8 0.00 0.00 0.00 64 1013.0
20260503031517 17 0.0 1.6 0.00 0.00 0.00 63 1012.8
20260503030517 18 293 1.6 6.4 0.00 0.00 0.00 62 1012.8
20260503025517 18 0.0 8.0 0.00 0.00 0.00 61 1012.7
20260503024517 18 0.0 4.8 0.00 0.00 0.00 59 1012.7
20260503023517 19 315 1.6 6.4 0.00 0.00 0.00 58 1012.6
20260503022517 19 45 1.6 8.0 0.00 0.00 0.00 58 1012.5
20260503021537 20 0 1.6 8.0 0.00 0.00 0.00 57 1012.7
20260503020517 20 23 1.6 8.0 0.00 0.00 0.00 55 1012.6
20260503015517 20 0 3.2 9.7 0.00 0.00 0.00 55 1012.6
20260503014517 20 315 3.2 9.7 0.00 0.00 0.00 56 1012.6
20260503013517 20 338 3.2 9.7 0.00 0.00 0.00 56 1012.6
20260503012517 20 293 4.8 20.9 0.00 0.00 0.00 54 1012.6
20260503011517 21 315 1.6 6.4 0.00 0.00 0.00 55 1012.8
20260503010517 21 315 3.2 9.7 0.00 0.00 0.00 54 1012.8
20260503005537 21 293 3.2 11.3 0.00 0.00 0.00 53 1012.9
20260503004517 21 293 4.8 14.5 0.00 0.00 0.00 53 1012.9
20260503003517 22 293 3.2 11.3 0.00 0.00 0.00 52 1013.1
20260503002537 22 293 4.8 19.3 0.00 0.00 0.00 51 1013.0
20260503001517 22 315 6.4 20.9 0.00 0.00 0.00 51 1013.0
20260503000517 22 293 4.8 14.5 0.00 0.00 0.00 51 1013.1
20260502235537 23 293 4.8 12.9 0.00 0.00 0.00 50 1013.2
20260502234537 22 315 1.6 8.0 0.00 0.00 0.00 52 1013.3
20260502233537 22 293 4.8 17.7 0.00 0.00 0.00 51 1013.5
20260502232517 22 293 4.8 11.3 0.00 0.00 0.00 50 1013.7
20260502231517 22 293 6.4 17.7 0.00 0.00 0.00 50 1013.8
20260502230537 22 293 6.4 19.3 0.00 0.00 0.00 51 1013.9
20260502225517 22 315 6.4 12.9 0.00 0.00 0.00 50 1014.1
20260502224515 22 315 6.4 24.1 0.00 0.00 0.00 53 1014.3